map of MXJ home
Great Circle Mapper logo
MXJ - Airport
Location
City:  Minna, Nigeria
ICAO / IATA:DNMN / MXJ

Details
Type:Airport (Aerodrome, Airfield)
Use:Public/Civil
Latitude:939'08"N (9.652172)
Longitude:627'44"E (6.462256)
Datum:WGS 1984
Elevation:834 ft (254 m)
Variation:1.2W (WMM2010 magnetic declination)
Runways:1
Longest:11153 × 145 ft (3399 × 44 m), paved

Time
Time Zone:UTC+1
Local Time:

Weather
METAR:DNMN 230900Z 05010KT 5000 HZ NSC 30/07 Q1013
TAF:DNMN 231550Z 2318/2424 09008KT 7000 NSW NSC
TEMPO 2402/2408 03008KT 3000
BECMG 2408/2411 09008KT 8000 NSC

Related Locations
Nearby:
Farthest:AAU: 12159 mi / 19568 km
Asau, WS

Find:

   beyond  
but within

Other Information
Maps:
NOTAMs:
Links:
Sources:

  
flag of Nigeria   

Sectional Chart

Flight Planning
at skyvector.com

Satellite Image

Google Maps Satellite View

 

Copyright © 2004-2014 Karl L. Swartz. All rights reserved.
The Great Circle Mapper name and logo are trademarks of the Great Circle Mapper.
All other trademarks mentioned herein belong to their respective owners.
Please see credits for attibutions and further copyright information.

  Follow gcmap on Facebook Follow gcmap on Twitter

hCard Microformat

Geo Microformat